NOAA NWS Hourly Roundups by Site

Regional Weather Roundup for Seattle, WA

To Select Another Site Choose from List

Select Site:  

000
ASUS46 KSEW 310620
RWRWA

WASHINGTON REGIONAL WEATHER ROUNDUP
NATIONAL WEATHER SERVICE SEATTLE WA
1100 PM PDT MON MAR 30 2020

NOTE:"FAIR" INDICATES FEW OR NO CLOUDS BELOW 12,000 FEET WITH NO
SIGNIFICANT WEATHER AND/OR OBSTRUCTIONS TO VISIBILITY.

WAZ507-509-555>559-310700-
SEATTLE, TACOMA, EVERETT, AND VICINITY

CITY           SKY/WX    TMP DP  RH WIND       PRES   REMARKS
EVERETT        CLOUDY    41  37  86 S9        29.90R
6HR MIN TEMP:  41; 6HR MAX TEMP:  48; 6HR PCP: TRACE;

BOEING FIELD   LGT RAIN  41  38  89 VRB5      29.93R
6HR MIN TEMP:  40; 6HR MAX TEMP:  46; 6HR PCP:  0.06;

RENTON         CLOUDY    42  38  85 S6        29.93S
6HR MIN TEMP:  42; 6HR MAX TEMP:  45; 6HR PCP: TRACE;

SEATAC AIRPORT CLOUDY    42  40  92 S7        29.91F
6HR MIN TEMP:  42; 6HR MAX TEMP:  45; 6HR PCP:  0.03;

JBLM-MCCHORD   CLOUDY    41  38  90 S6        29.93S
6HR MIN TEMP:  40; 6HR MAX TEMP:  44; 6HR PCP:  0.05;

PUYALLUP       MOCLDY    41  41 100 VRB6      29.93S
BREMERTON      FAIR      37  36  96 S9        29.91S
6HR MIN TEMP:  37; 6HR MAX TEMP:  44; 6HR PCP:  0.17;

JBLM-FT LEWIS  CLOUDY    40  40 100 S8        29.92S
6HR MIN TEMP:  40; 6HR MAX TEMP:  43; 6HR PCP:  0.05;

TACOMA NARROWS CLOUDY    39  38  96 SW8       29.92S
6HR MIN TEMP:  39; 6HR MAX TEMP:  43; 6HR PCP:  0.02;

$$

WAZ001-503-506-510-514-515-310700-
NORTH INTERIOR

CITY           SKY/WX    TMP DP  RH WIND       PRES   REMARKS
BELLINGHAM     CLOUDY    43  34  70 SE7       29.89R
6HR MIN TEMP:  42; 6HR MAX TEMP:  49; 6HR PCP: TRACE;

FRIDAY HARBOR  LGT RAIN  40  37  89 CALM      29.89S
6HR MIN TEMP:  37; 6HR MAX TEMP:  47; 6HR PCP: TRACE;

EASTSOUND      CLOUDY    39  37  93 CALM      29.89S
PORT ANGELES   CLOUDY    39  36  89 SW10      29.89S
6HR MIN TEMP:  37; 6HR MAX TEMP:  43; 6HR PCP:  0.02;

EDIZ HOOK      CLOUDY    42  39  88 SW6       29.90R
6HR MIN TEMP:  41; 6HR MAX TEMP:  45;

PORT TOWNSEND  CLOUDY    39  39 100 CALM      29.88S
NAS WHIDBEY    MOCLDY    47  37  68 SE5       29.93R
6HR MIN TEMP:  46; 6HR MAX TEMP:  51; 6HR PCP: TRACE;

ARLINGTON      LGT RAIN  42  38  85 S14       29.91S
6HR MIN TEMP:  42; 6HR MAX TEMP:  49; 6HR PCP: TRACE;

BURLINGTON     CLOUDY    37  36  93 NE6       29.90F
$$

WAZ020-022-039-040-504-511-512-310700-
SOUTHWEST INTERIOR

CITY           SKY/WX    TMP DP  RH WIND       PRES   REMARKS
SHELTON        CLOUDY    38  37  97 S3        29.90S
6HR MIN TEMP:  38; 6HR MAX TEMP:  42; 6HR PCP:  0.12;

OLYMPIA        LGT RAIN  41  39  93 SW5       29.93S
6HR MIN TEMP:  40; 6HR MAX TEMP:  43; 6HR PCP:  0.13;

CHEHALIS       CLOUDY    43  41  93 CALM      29.94S
KELSO          RAIN      42  39  89 S6        29.98S
6HR MIN TEMP:  42; 6HR MAX TEMP:  47; 6HR PCP:  0.03;

VANCOUVER      LGT RAIN  45  39  79 VRB3      29.98S
6HR MIN TEMP:  45; 6HR MAX TEMP:  52; 6HR PCP:  0.07;

SCAPPOOSE, OR  LGT RAIN  44  40  85 S3        29.97S
6HR MIN TEMP:  43; 6HR MAX TEMP:  51; 6HR PCP:  0.04;

PORTLAND, OR   CLOUDY    45  41  86 S8        29.99S
6HR MIN TEMP:  44; 6HR MAX TEMP:  53; 6HR PCP:  0.07;

$$

WAZ021-516-517-310700-
WASHINGTON COAST

CITY           SKY/WX    TMP DP  RH WIND       PRES   REMARKS
FORKS          NOT AVBL
HOQUIAM        FAIR      42  39  89 S9        29.92S
6HR MIN TEMP:  42; 6HR MAX TEMP:  47; 6HR PCP:  0.10;

ASTORIA, OR    LGT RAIN  44  38  79 W14       29.96R
6HR MIN TEMP:  41; 6HR MAX TEMP:  46; 6HR PCP:  0.13;

$$

WAZ019-023-024-040-567>569-310700-
CASCADE MOUNTAINS AND COLUMBIA GORGE

CITY           SKY/WX    TMP DP  RH WIND       PRES   REMARKS
STAMPEDE PASS  HVY SNOW  29  27  92 VRB3      29.80S VSB 1/4
6HR MIN TEMP:  29; 6HR MAX TEMP:  30; 6HR PCP:  0.32;

TROUTDALE, OR  LGT RAIN  46  40  79 SW7       29.98F
6HR MIN TEMP:  43; 6HR MAX TEMP:  50; 6HR PCP:  0.19;

HOOD RIVER, OR LGT RAIN  37  37 100 CALM      29.97S
THE DALLES, OR CLOUDY    41  37  86 NW7       29.97S
6HR MIN TEMP:  41; 6HR MAX TEMP:  48; 6HR PCP:  0.05;

$$

WAZ026-027-041>044-520-521-310700-
EAST SLOPES

CITY           SKY/WX    TMP DP  RH WIND       PRES   REMARKS
OMAK           FAIR      40  21  46 SE8       29.82R
6HR MIN TEMP:  40; 6HR MAX TEMP:  56;

WENATCHEE      FAIR      35  29  78 SW6       29.86R
6HR MIN TEMP:  35; 6HR MAX TEMP:  51;

ELLENSBURG     FAIR      30  25  81 NE5       29.85S
6HR MIN TEMP:  30; 6HR MAX TEMP:  49;

YAKIMA         FAIR      40  30  67 SE5       29.88F
6HR MIN TEMP:  38; 6HR MAX TEMP:  54;

SUNNYSIDE ARPT FAIR      42  33  69 S8        29.91
6HR MIN TEMP:  43; 6HR MAX TEMP:  54;

YAKIMA TC      NOT AVBL
$$

WAZ028-034-035-310700-
COLUMBIA BASIN

CITY           SKY/WX    TMP DP  RH WIND       PRES   REMARKS
EPHRATA        FAIR      33  22  63 SW8       29.86R
6HR MIN TEMP:  32; 6HR MAX TEMP:  56;

MOSES LAKE     FAIR      46  26  45 S8        29.87F
6HR MIN TEMP:  44; 6HR MAX TEMP:  59;

PASCO          MOCLDY    48  32  53 SW15      29.94F
6HR MIN TEMP:  47; 6HR MAX TEMP:  57;

RICHLAND ARPT  CLOUDY    48  34  59 S16G23    29.92F
6HR MIN TEMP:  47; 6HR MAX TEMP:  56;

HERMISTON, OR  FAIR      44  33  65 CALM      29.95F
6HR MIN TEMP:  43; 6HR MAX TEMP:  53;

$$

WAZ036>038-310700-
NORTHEAST WASHINGTON

CITY           SKY/WX    TMP DP  RH WIND       PRES   REMARKS
SPOKANE GEIGER FAIR      37  31  78 SW18G25   29.85S
6HR MIN TEMP:  37; 6HR MAX TEMP:  48; 6HR PCP:  0.01;

SPOKANE FELTS  FAIR      39  31  72 SW9       29.87S
6HR MIN TEMP:  39; 6HR MAX TEMP:  50; 6HR PCP: TRACE;

FAIRCHILD AFB  CLEAR     36  36  99 S17G24    29.84S
6HR MIN TEMP:  36; 6HR MAX TEMP:  47; 6HR PCP: TRACE;

COEURDALENE,ID MOCLDY    37  31  78 S8        29.88S
6HR MIN TEMP:  37; 6HR MAX TEMP:  46; 6HR PCP: TRACE;

DEER PARK      FAIR      35  28  75 SE9       29.85S
6HR MIN TEMP:  35; 6HR MAX TEMP:  49;

$$

WAZ029>033-310700-
SOUTHEAST WASHINGTON

CITY           SKY/WX    TMP DP  RH WIND       PRES   REMARKS
PULLMAN        MOCLDY    37  29  72 SW6       29.92S
6HR MIN TEMP:  37; 6HR MAX TEMP:  40;

LEWISTON, ID   CLOUDY    44  35  70 S8        29.94F
6HR MIN TEMP:  44; 6HR MAX TEMP:  47;

WALLA WALLA    CLOUDY    43  34  70 S13       29.95S
6HR MIN TEMP:  43; 6HR MAX TEMP:  45;

PENDLETON, OR  CLOUDY    41  39  93 S6        29.95S
6HR MIN TEMP:  41; 6HR MAX TEMP:  47; 6HR PCP:  0.04;

$$


 

View Past Reports for Seattle, WA.

Products Courtesy of NOAA-NWS
NWS Information Parsing Script by Ken True at Saratoga Weather - Script by SE Lincoln Weather.